Regional Weather Roundup
Issued by NWS Sioux Falls, SD

Home | Current Version | Previous Version | Text Only | Print | Product List | Glossary Off
Versions: 1 2 3 4 5 6 7 8 9 10 11 12 13 14 15 16 17 18 19 20 21 22 23 24 25 26 27 28 29 30 31 32 33 34 35 36 37 38 39 40 41 42 43 44 45 46 47 48 49 50

081
ASUS43 KFSD 200710
RWRFSD

WEATHER ROUNDUP FOR SE SOUTH DAKOTA/SW MINNESOTA/NW IOWA
NATIONAL WEATHER SERVICE SIOUX FALLS SD
100 AM CST FRI JAN 20 2017

NOTE: "FAIR" INDICATES FEW OR NO CLOUDS BELOW 12,000 FEET WITH NO
SIGNIFICANT WEATHER AND OR OBSTRUCTIONS TO VISIBILITY.


SDZ038>040-050-052>070-200800-
SOUTHEAST SOUTH DAKOTA

CITY           SKY/WX    TMP DP  RH WIND       PRES   REMARKS
BROOKINGS      CLOUDY    35  35 100 S10       29.54F FOG     WCI  27
CHAMBERLAIN    CLOUDY    38  37  97 S8        29.47S
HURON          CLOUDY    37  37 100 SE12      29.50F
MADISON        CLOUDY    34  34 100 S10         N/A  WCI  26
MITCHELL       CLOUDY    39  38  96 SE14      29.52F FOG
SIOUX FALLS    CLOUDY    37  37 100 S9        29.57F FOG
WINNER         PTSUNNY   35  33  92 S10       29.45S WCI  27
YANKTON        CLOUDY    37  36  93 SE8       29.55F
$$

MNZ071-072-080-081-089-090-097-098-200800-
SOUTHWEST MINNESOTA

CITY           SKY/WX    TMP DP  RH WIND       PRES   REMARKS
FAIRMONT       FOG       33  33 100 S5        29.59F VSB 1/4 WCI  29
JACKSON        FOG       32  32 100 S3        29.59F VSB 1/2
LUVERNE        FOG       34  32  93 S5        29.58F VSB 1/2 WCI  30
MARSHALL       FOG       34  34 100 SE6       29.58F VSB 1   WCI  29
MONTEVIDEO     FOG       34  34 100 SE6       29.60F VSB 1/2 WCI  29
PIPESTONE      CLOUDY    37  36  93 S7        29.55F FOG
REDWOOD FALLS  FOG       34  33  96 E6        29.60S VSB 1/4 WCI  29
TRACY          FOG       35  35  99 SE3       29.57F VSB 1/2
WINDOM         FOG       34  34 100 SE3       29.58F VSB 1/4
WORTHINGTON    FOG       34  34 100 S6        29.58F VSB 3/4 WCI  29
$$

IAZ001>003-012>014-020>022-031-032-NEZ013-014-SDZ071-200800-
NORTHWEST IOWA

CITY           SKY/WX    TMP DP  RH WIND       PRES   REMARKS
CHEROKEE       CLOUDY    35  35 100 S3        29.59F FOG
DENISON        CLOUDY    37  37 100 S6        29.56F FOG
ESTHERVILLE    FOG       32  32 100 SE3       29.58F VSB 1/4
LE MARS        FOG       37  37 100 S6        29.60S VSB 3/4
ORANGE CITY    FOG       36  36 100 S5        29.59S VSB 1/4
SHELDON        FOG       36  36 100 S6        29.57S VSB 1/2
SIOUX CITY     FOG       38  38 100 SE6       29.59F VSB 1/2
SPENCER        FOG       34  34 100 S5        29.58F VSB 1/4 WCI  30
STORM LAKE     FOG       34  34 100 SW5       29.58F VSB<1/4 WCI  30
$$

ABBREVIATIONS USED IN REMARKS
   TC - TEMPERATURE IN CELSIUS
  WCI - WIND CHILL INDEX
   HX - HEAT INDEX
  VSB - VISIBILITY





USA.gov is the U.S. government's official web portal to all federal, state and local government web resources and services.